STARLINK-32614

Last updated on Thu Jan 23 2025 00:02:04 GMT+0000 (Coordinated Universal Time)

1 62428U 24249V 25022.42514067 -.00037892 00000+0 -64872-3 0 9993 2 62428 42.9989 131.5987 0002119 229.6513 130.4163 15.50337288 4745
UTC large
Height (km)
Speed (km/s)
/
Latitude / Longitude
Inclination (degrees)
Orbital Period (minutes)
Azimuth
Elevation
Range (km)
Doppler Factor

Next 0 passes for location: London (51.5072 / 0.1276)

Sorry there are no passes over London.